WAT43 ESPA-ESGG

Flight info

Callsign WAT43
Flight time N/A
Altitude 34000
Route RISEM DCT GAJPA DCT OGIRO M852 NEGIL
Aircraft A306/H-SDE3FGHIRWY/LB1

Departure

Time 2026-04-15 15:17
Airport Luleå Airport (ESPA)

Arrival

Time N/A
Airport Göteborg Landvetter Airport (ESGG)
Time Latitude Longitude Altitude Speed Heading
2026-04-15 14:37 65.54859 22.12207 57 ft 0 kts 46°
2026-04-15 14:55 65.54856 22.12199 57 ft 2 kts 50°
2026-04-15 14:56 65.54846 22.12171 57 ft 2 kts 48°
2026-04-15 14:56 65.54839 22.12140 57 ft 2 kts 78°
2026-04-15 14:56 65.54839 22.12103 58 ft 2 kts 104°
2026-04-15 14:56 65.54845 22.12071 58 ft 2 kts 130°
2026-04-15 14:57 65.54850 22.12058 58 ft 1 kts 138°
2026-04-15 14:57 65.54851 22.12056 58 ft 0 kts 137°
2026-04-15 15:00 65.54851 22.12057 58 ft 0 kts 137°
2026-04-15 15:05 65.54840 22.12080 58 ft 5 kts 137°
2026-04-15 15:06 65.54769 22.12132 57 ft 0 kts 210°
2026-04-15 15:12 65.54754 22.12097 57 ft 6 kts 236°
2026-04-15 15:12 65.54765 22.11956 58 ft 10 kts 307°
2026-04-15 15:12 65.54835 22.11787 60 ft 17 kts 319°
2026-04-15 15:13 65.54938 22.11564 63 ft 21 kts 318°
2026-04-15 15:13 65.55047 22.11323 67 ft 20 kts 307°
2026-04-15 15:13 65.55128 22.11142 70 ft 12 kts 321°
2026-04-15 15:13 65.55197 22.11000 72 ft 13 kts 316°
2026-04-15 15:14 65.55274 22.10816 75 ft 18 kts 316°
2026-04-15 15:14 65.55379 22.10574 77 ft 22 kts 316°
2026-04-15 15:14 65.55499 22.10307 79 ft 23 kts 317°
2026-04-15 15:14 65.55544 22.10008 81 ft 13 kts 252°
2026-04-15 15:15 65.55534 22.09941 82 ft 0 kts 247°
2026-04-15 15:15 65.55533 22.09934 82 ft 2 kts 246°
2026-04-15 15:15 65.55501 22.09833 82 ft 14 kts 217°
2026-04-15 15:16 65.55389 22.09928 81 ft 18 kts 133°
2026-04-15 15:16 65.55363 22.09994 80 ft 0 kts 135°
2026-04-15 15:16 65.55356 22.10011 80 ft 6 kts 135°
2026-04-15 15:16 65.55231 22.10292 78 ft 51 kts 137°
2026-04-15 15:17 65.54775 22.11306 66 ft 124 kts 137°
2026-04-15 15:17 65.53983 22.13087 194 ft 176 kts 137°
2026-04-15 15:17 65.53087 22.15078 849 ft 182 kts 138°
2026-04-15 15:17 65.52102 22.17204 1423 ft 195 kts 139°
2026-04-15 15:18 65.51013 22.19574 1721 ft 225 kts 138°
2026-04-15 15:18 65.49657 22.21743 2159 ft 247 kts 165°
2026-04-15 15:18 65.47960 22.21594 2920 ft 254 kts 203°
2026-04-15 15:18 65.46600 22.18950 3849 ft 255 kts 239°
2026-04-15 15:19 65.46004 22.15020 4808 ft 258 kts 255°
2026-04-15 15:19 65.45584 22.10800 5792 ft 262 kts 256°
2026-04-15 15:19 65.45164 22.06535 6787 ft 266 kts 255°
2026-04-15 15:19 65.44733 22.02237 7810 ft 267 kts 255°
2026-04-15 15:20 65.44286 21.97888 8713 ft 272 kts 255°
2026-04-15 15:20 65.43832 21.93480 9660 ft 273 kts 255°
2026-04-15 15:20 65.43378 21.89082 10528 ft 277 kts 256°
2026-04-15 15:20 65.42902 21.84472 11042 ft 293 kts 256°
2026-04-15 15:21 65.42394 21.79520 11383 ft 315 kts 256°
2026-04-15 15:21 65.41860 21.74309 11645 ft 336 kts 256°
2026-04-15 15:21 65.41286 21.68645 12041 ft 354 kts 256°
2026-04-15 15:21 65.40291 21.63170 12667 ft 364 kts 234°
2026-04-15 15:22 65.38390 21.59223 13479 ft 371 kts 210°
2026-04-15 15:22 65.35941 21.57251 14416 ft 372 kts 197°
2026-04-15 15:22 65.33504 21.54981 15182 ft 378 kts 210°
2026-04-15 15:22 65.31382 21.51264 15867 ft 384 kts 223°
2026-04-15 15:23 65.29514 21.46643 16656 ft 385 kts 230°
2026-04-15 15:23 65.27801 21.41728 17376 ft 389 kts 232°
2026-04-15 15:23 65.26100 21.36643 18103 ft 394 kts 233°
2026-04-15 15:23 65.24357 21.31434 18793 ft 399 kts 232°
2026-04-15 15:24 65.22555 21.26180 19445 ft 403 kts 229°
2026-04-15 15:24 65.20417 21.21614 19986 ft 410 kts 218°
2026-04-15 15:24 65.18222 21.17968 20559 ft 415 kts 214°
2026-04-15 15:24 65.15789 21.14229 21191 ft 419 kts 214°
2026-04-15 15:25 65.13356 21.10486 21742 ft 425 kts 214°
2026-04-15 15:25 65.10902 21.06648 22281 ft 429 kts 215°
2026-04-15 15:25 65.08409 21.02706 22823 ft 435 kts 215°
2026-04-15 15:25 65.05875 20.98678 23366 ft 440 kts 215°
2026-04-15 15:26 65.03308 20.94610 23923 ft 445 kts 215°
2026-04-15 15:26 65.00730 20.90540 24502 ft 449 kts 215°
2026-04-15 15:26 64.98119 20.86434 25039 ft 454 kts 215°
2026-04-15 15:26 64.95438 20.82233 25619 ft 459 kts 215°
2026-04-15 15:27 64.92775 20.78064 26157 ft 463 kts 215°
2026-04-15 15:27 64.90088 20.73870 26697 ft 466 kts 215°
2026-04-15 15:27 64.87353 20.69614 27144 ft 470 kts 215°
2026-04-15 15:27 64.84583 20.65307 27588 ft 474 kts 215°
2026-04-15 15:28 64.81848 20.61067 28063 ft 477 kts 216°
2026-04-15 15:28 64.79121 20.56848 28654 ft 476 kts 216°
2026-04-15 15:28 64.76349 20.52573 29217 ft 477 kts 216°
2026-04-15 15:28 64.73626 20.48388 29864 ft 475 kts 216°
2026-04-15 15:29 64.70881 20.44179 30459 ft 474 kts 216°
2026-04-15 15:29 64.68143 20.39988 31044 ft 472 kts 216°
2026-04-15 15:29 64.65407 20.35795 31729 ft 466 kts 216°
2026-04-15 15:29 64.62718 20.31687 32392 ft 462 kts 214°
2026-04-15 15:30 64.60000 20.27547 33084 ft 456 kts 214°
2026-04-15 15:30 64.57404 20.23608 33520 ft 452 kts 214°
2026-04-15 15:30 64.54783 20.19645 33926 ft 448 kts 214°
2026-04-15 15:30 64.52193 20.15741 34243 ft 447 kts 214°
2026-04-15 15:31 64.47105 20.08100 34279 ft 445 kts 214°
2026-04-15 15:31 64.41986 20.00438 34316 ft 444 kts 214°
2026-04-15 15:32 64.36815 19.92736 34356 ft 444 kts 214°
2026-04-15 15:32 64.31717 19.85157 34385 ft 445 kts 214°
2026-04-15 15:33 64.26554 19.77534 34345 ft 444 kts 214°
2026-04-15 15:33 64.21348 19.69886 34340 ft 445 kts 214°
2026-04-15 15:34 64.16193 19.62353 34377 ft 445 kts 214°
2026-04-15 15:34 64.10976 19.54748 34326 ft 444 kts 214°
2026-04-15 15:35 64.05737 19.47141 34352 ft 444 kts 214°
2026-04-15 15:35 64.00514 19.39593 34350 ft 444 kts 214°
2026-04-15 15:36 63.95273 19.32060 34310 ft 445 kts 213°
2026-04-15 15:36 63.90089 19.24644 34326 ft 446 kts 213°
2026-04-15 15:37 63.84859 19.17195 34338 ft 446 kts 213°
2026-04-15 15:37 63.79671 19.09834 34335 ft 445 kts 213°
2026-04-15 15:38 63.74694 19.02801 34327 ft 446 kts 213°
2026-04-15 15:38 63.69331 18.95265 34362 ft 445 kts 213°
2026-04-15 15:39 63.64075 18.87910 34344 ft 444 kts 213°
2026-04-15 15:39 63.58836 18.80604 34342 ft 444 kts 213°
2026-04-15 15:40 63.53710 18.73488 34365 ft 444 kts 213°
2026-04-15 15:40 63.48570 18.66377 34341 ft 444 kts 213°
2026-04-15 15:41 63.43316 18.59148 34329 ft 444 kts 213°
2026-04-15 15:41 63.38042 18.51937 34335 ft 445 kts 213°
2026-04-15 15:42 63.32831 18.44824 34352 ft 445 kts 213°
2026-04-15 15:42 63.27571 18.37683 34348 ft 444 kts 213°
2026-04-15 15:43 63.22284 18.30535 34344 ft 444 kts 212°
2026-04-15 15:43 63.17041 18.23478 34351 ft 444 kts 212°
2026-04-15 15:44 63.11836 18.16492 34339 ft 445 kts 212°
2026-04-15 15:44 63.06629 18.09546 34339 ft 445 kts 212°
2026-04-15 15:45 63.01487 18.02721 34365 ft 445 kts 211°
2026-04-15 15:45 62.96089 17.95944 34357 ft 445 kts 211°
2026-04-15 15:46 62.90797 17.88924 34343 ft 447 kts 212°
2026-04-15 15:46 62.85530 17.81843 34336 ft 445 kts 212°
2026-04-15 15:47 62.80347 17.74930 34344 ft 445 kts 212°
2026-04-15 15:47 62.75006 17.67836 34327 ft 447 kts 212°
2026-04-15 15:48 62.69683 17.60802 34322 ft 449 kts 212°
2026-04-15 15:48 62.64343 17.53783 34353 ft 447 kts 212°
2026-04-15 15:49 62.58984 17.46747 34359 ft 450 kts 212°
2026-04-15 15:49 62.53608 17.39732 34353 ft 449 kts 212°
2026-04-15 15:50 62.48275 17.32812 34364 ft 448 kts 211°
2026-04-15 15:50 62.43004 17.25989 34351 ft 449 kts 211°
2026-04-15 15:51 62.37856 17.19351 34360 ft 449 kts 211°
2026-04-15 15:51 62.32863 17.12935 34332 ft 453 kts 211°
2026-04-15 15:52 62.27229 17.05748 34327 ft 450 kts 211°
2026-04-15 15:52 62.21822 16.98859 34326 ft 451 kts 211°
2026-04-15 15:53 62.16420 16.92018 34327 ft 451 kts 211°
2026-04-15 15:53 62.11005 16.85180 34323 ft 452 kts 211°
2026-04-15 15:54 62.05609 16.78407 34317 ft 451 kts 211°
2026-04-15 15:54 62.00224 16.71665 34328 ft 453 kts 211°
2026-04-15 15:55 61.94832 16.64948 34319 ft 452 kts 211°
2026-04-15 15:55 61.89426 16.58235 34304 ft 454 kts 211°
2026-04-15 15:56 61.84017 16.51553 34286 ft 455 kts 211°
2026-04-15 15:56 61.78737 16.45054 34293 ft 454 kts 211°
2026-04-15 15:57 61.73515 16.38643 34307 ft 454 kts 211°
2026-04-15 15:57 61.69274 16.33470 34304 ft 455 kts 210°